Change the Weather History Date:

Sunday, January 29, 2012

  Actual Average (KRHI) Record (KRHI)
Temperature  
Mean Temperature 10 °F 13 °F  
Max Temperature 19 °F 22 °F 41 °F (1927)
Min Temperature 1 °F 3 °F -33 °F (1951)
Degree Days  
Heating Degree Days 55 52  
Month to date heating degree days 1531  
Since 1 July heating degree days 5157  
Cooling Degree Days 0 0  
Month to date cooling degree days 0  
Year to date cooling degree days 0  
Moisture  
Dew Point 5 °F    
Average Humidity 66    
Maximum Humidity 85    
Minimum Humidity 45    
Precipitation  
Precipitation 0.00 in 0.03 in 0.71 in (1914)
Month to date precipitation 1.04  
Year to date precipitation 1.04  
Snow  
Snow 0.00 in - 7.00 in (1987)
Month to date snowfall  
Since 1 July snowfall  
Snow Depth -    
Sea Level Pressure  
Sea Level Pressure 29.96 in    
Wind  
Wind Speed 6 mph (West)    
Max Wind Speed 14 mph    
Max Gust Speed 21 mph    
Visibility 10 miles    
Events Snow    
T = Trace of Precipitation, MM = Missing Value Source: NWS Daily Summary

Daily Weather History Graph

Daily Weather History Graph

Search for Another Location

Airport or City:

Trip Planner

Search our weather history database for the weather conditions in past years. The results will help you decide how hot, cold, wet, or windy it might be!

Date:

Astronomy

Jan. 29, 2012 Rise Set
Actual Time 7:24 AM CST 5:01 PM CST
Civil Twilight 6:52 AM CST 5:32 PM CST
Nautical Twilight 6:16 AM CST 6:08 PM CST
Astronomical Twilight 5:41 AM CST 6:43 PM CST
Moon 9:52 AM CST (1/29) No Moon Set
Length of Visible Light 10h 40m
Length of Day
9h 36m
Waxing Crescent, 37% of the Moon is Illuminated
Jan 29
Waxing Crescent
Jan 30
First Quarter
Feb 7
Full
Feb 14
Last Quarter
Feb 21
New

Hourly Weather History & Observations

Time (CST) Temp. Windchill Dew Point Humidity Pressure Visibility Wind Dir Wind Speed Gust Speed Precip Events Conditions
12:15 AM 19.4 °F 14.3 °F 10.4 °F 68% 29.85 in 10.0 mi West 3.5 mph - N/A   Overcast
12:35 AM 19.4 °F 12.8 °F 10.4 °F 68% 29.85 in 10.0 mi West 4.6 mph - N/A   Overcast
12:55 AM 19.4 °F 12.8 °F 10.4 °F 68% 29.85 in 10.0 mi West 4.6 mph - N/A Snow Light Snow
1:15 AM 19.4 °F 11.5 °F 10.4 °F 68% 29.85 in 10.0 mi WNW 5.8 mph - N/A   Overcast
1:35 AM 17.6 °F 9.3 °F 10.4 °F 73% 29.85 in 10.0 mi West 5.8 mph - N/A   Overcast
1:55 AM 17.6 °F 12.3 °F 8.6 °F 68% 29.85 in 10.0 mi West 3.5 mph - N/A   Mostly Cloudy
2:15 AM 15.8 °F 10.2 °F 8.6 °F 73% 29.86 in 10.0 mi West 3.5 mph - N/A   Overcast
2:35 AM 17.6 °F 12.3 °F 8.6 °F 68% 29.86 in 10.0 mi West 3.5 mph - N/A   Mostly Cloudy
2:55 AM 14.0 °F 6.5 °F 8.6 °F 79% 29.86 in 10.0 mi West 4.6 mph - N/A   Overcast
3:15 AM 15.8 °F 10.2 °F 8.6 °F 73% 29.86 in 10.0 mi West 3.5 mph - N/A   Overcast
3:35 AM 14.0 °F 6.5 °F 8.6 °F 79% 29.86 in 10.0 mi West 4.6 mph - N/A   Overcast
3:55 AM 14.0 °F 6.5 °F 8.6 °F 79% 29.86 in 10.0 mi West 4.6 mph - N/A   Overcast
4:35 AM 14.0 °F 5.1 °F 8.6 °F 79% 29.87 in 10.0 mi West 5.8 mph - N/A   Overcast
4:55 AM 14.0 °F 2.9 °F 8.6 °F 79% 29.87 in 10.0 mi West 8.1 mph - N/A   Overcast
5:15 AM 14.0 °F 5.1 °F 8.6 °F 79% 29.87 in 10.0 mi West 5.8 mph - N/A   Mostly Cloudy
5:35 AM 14.0 °F 5.1 °F 8.6 °F 79% 29.87 in 10.0 mi West 5.8 mph - N/A   Mostly Cloudy
5:55 AM 12.2 °F 2.9 °F 6.8 °F 79% 29.88 in 10.0 mi West 5.8 mph - N/A   Overcast
6:15 AM 10.4 °F 2.2 °F 6.8 °F 85% 29.88 in 10.0 mi West 4.6 mph - N/A   Overcast
6:35 AM 12.2 °F 2.9 °F 6.8 °F 79% 29.90 in 10.0 mi West 5.8 mph - N/A   Overcast
6:55 AM 10.4 °F 0.8 °F 5.0 °F 79% 29.91 in 10.0 mi West 5.8 mph - N/A   Overcast
7:15 AM 10.4 °F -0.4 °F 5.0 °F 79% 29.91 in 10.0 mi West 6.9 mph - N/A   Overcast
7:35 AM 10.4 °F 0.8 °F 6.8 °F 85% 29.92 in 10.0 mi West 5.8 mph - N/A   Overcast
7:55 AM 12.2 °F 0.7 °F 8.6 °F 85% 29.93 in 10.0 mi West 8.1 mph - N/A Snow Light Snow
8:15 AM 12.2 °F 1.7 °F 8.6 °F 85% 29.94 in 10.0 mi West 6.9 mph - N/A Snow Light Snow
8:35 AM 12.2 °F -1.8 °F 8.6 °F 85% 29.94 in 7.0 mi West 11.5 mph - N/A Snow Light Snow
8:55 AM 12.2 °F -0.2 °F 6.8 °F 79% 29.94 in 10.0 mi WNW 9.2 mph - N/A Snow Light Snow
9:15 AM 14.0 °F 1.2 °F 6.8 °F 73% 29.95 in 5.0 mi WNW 10.4 mph 16.1 mph N/A Snow Light Snow
9:35 AM 14.0 °F 2.0 °F 5.0 °F 67% 29.96 in 10.0 mi NW 9.2 mph 18.4 mph N/A   Scattered Clouds
9:55 AM 14.0 °F 2.0 °F 5.0 °F 67% 29.96 in 10.0 mi NW 9.2 mph - N/A   Scattered Clouds
10:15 AM 14.0 °F -0.8 °F 3.2 °F 62% 29.97 in 10.0 mi WNW 13.8 mph - N/A   Scattered Clouds
10:35 AM 14.0 °F 2.0 °F 3.2 °F 62% 29.98 in 10.0 mi NW 9.2 mph - N/A   Clear
10:55 AM 14.0 °F 2.9 °F 3.2 °F 62% 29.98 in 10.0 mi NW 8.1 mph 16.1 mph N/A   Clear
11:15 AM 15.8 °F 2.7 °F 3.2 °F 58% 29.99 in 10.0 mi WNW 11.5 mph - N/A   Clear
11:35 AM 15.8 °F 3.4 °F 3.2 °F 58% 29.99 in 10.0 mi WNW 10.4 mph - N/A   Clear
11:55 AM 17.6 °F 6.4 °F 3.2 °F 53% 29.99 in 10.0 mi NW 9.2 mph - N/A   Clear
12:15 PM 17.6 °F 5.0 °F 5.0 °F 58% 30.00 in 10.0 mi West 11.5 mph - N/A   Clear
12:35 PM 17.6 °F 5.7 °F 3.2 °F 53% 30.00 in 10.0 mi WNW 10.4 mph - N/A   Clear
12:55 PM 17.6 °F 6.4 °F 3.2 °F 53% 30.00 in 7.0 mi WNW 9.2 mph 18.4 mph N/A   Clear
1:15 PM 19.4 °F 6.0 °F 3.2 °F 49% 29.99 in 10.0 mi West 13.8 mph 17.3 mph N/A   Clear
1:35 PM 19.4 °F 7.9 °F 3.2 °F 49% 29.99 in 10.0 mi West 10.4 mph - N/A   Clear
1:55 PM 19.4 °F 7.2 °F 3.2 °F 49% 29.99 in 10.0 mi NW 11.5 mph 20.7 mph N/A   Clear
2:15 PM 19.4 °F 7.9 °F 3.2 °F 49% 29.99 in 10.0 mi West 10.4 mph - N/A   Clear
2:35 PM 19.4 °F 9.5 °F 3.2 °F 49% 30.00 in 10.0 mi West 8.1 mph - N/A   Clear
2:55 PM 19.4 °F 7.9 °F 1.4 °F 46% 30.00 in 10.0 mi NW 10.4 mph - N/A   Clear
3:15 PM 19.4 °F 8.6 °F 1.4 °F 46% 30.00 in 10.0 mi WNW 9.2 mph - N/A   Clear
3:35 PM 19.4 °F 10.4 °F 1.4 °F 46% 30.01 in 10.0 mi WNW 6.9 mph - N/A   Clear
3:55 PM 19.4 °F 10.4 °F 1.4 °F 46% 30.01 in 10.0 mi West 6.9 mph - N/A   Clear
4:15 PM 17.6 °F 9.3 °F -0.4 °F 45% 30.02 in 10.0 mi West 5.8 mph - N/A   Clear
4:35 PM 17.6 °F 5.7 °F 1.4 °F 49% 30.04 in 10.0 mi West 10.4 mph 16.1 mph N/A   Clear
4:55 PM 17.6 °F 7.3 °F 1.4 °F 49% 30.04 in 10.0 mi West 8.1 mph - N/A   Clear
5:15 PM 15.8 °F 10.2 °F -0.4 °F 49% 30.04 in 10.0 mi West 3.5 mph - N/A   Clear
5:35 PM 14.0 °F - -0.4 °F 53% 30.04 in 10.0 mi Calm Calm - N/A   Clear
5:55 PM 12.2 °F - -0.4 °F 57% 30.04 in 10.0 mi Calm Calm - N/A   Clear
6:15 PM 10.4 °F - -0.4 °F 62% 30.05 in 10.0 mi Calm Calm - N/A   Clear
6:35 PM 10.4 °F - -0.4 °F 62% 30.06 in 10.0 mi Calm Calm - N/A   Clear
6:55 PM 10.4 °F - -0.4 °F 62% 30.07 in 10.0 mi Calm Calm - N/A   Clear
7:15 PM 10.4 °F - 1.4 °F 67% 30.06 in 10.0 mi Calm Calm - N/A   Clear
7:35 PM 8.6 °F - -0.4 °F 67% 30.06 in 10.0 mi Calm Calm - N/A   Clear
7:55 PM 3.2 °F - -2.2 °F 78% 30.06 in 10.0 mi Calm Calm - N/A   Clear
8:15 PM 1.4 °F - -4.0 °F 78% 30.07 in 10.0 mi Calm Calm - N/A   Clear
8:35 PM 1.4 °F - -4.0 °F 78% 30.06 in 10.0 mi Calm Calm - N/A   Clear
8:55 PM 1.4 °F - -4.0 °F 78% 30.06 in 10.0 mi Calm Calm - N/A   Clear
9:15 PM -4.0 °F - -7.6 °F 85% 30.06 in 10.0 mi Calm Calm - N/A   Clear
9:35 PM -5.8 °F - -9.4 °F 84% 30.06 in 10.0 mi Calm Calm - N/A   Clear
9:55 PM -4.0 °F - -7.6 °F 85% 30.06 in 10.0 mi Calm Calm - N/A   Clear
10:15 PM -5.8 °F - -9.4 °F 84% 30.06 in 10.0 mi Calm Calm - N/A   Clear
10:35 PM -5.8 °F - -9.4 °F 84% 30.06 in 10.0 mi Calm Calm - N/A   Clear
10:55 PM -2.2 °F - -5.8 °F 85% 30.06 in 10.0 mi Calm Calm - N/A   Clear
11:15 PM -4.0 °F - -7.6 °F 85% 30.06 in 10.0 mi Calm Calm - N/A   Clear
11:35 PM -2.2 °F - -7.6 °F 78% 30.05 in 10.0 mi Calm Calm - N/A   Mostly Cloudy
11:55 PM -2.2 °F - -7.6 °F 78% 30.05 in 10.0 mi Calm Calm - N/A   Overcast